Location: Coors Field
(39.7564°N, 104.9943°W)
Time: 13:56:08
(UTC-06:00)

ISS - Visible Passes

Search period start: 23 October 2014 00:00
Search period end: 02 November 2014 00:00
Orbit: 412 x 416 km, 51.6° (Epoch: 23 October)

Date Brightness Start Highest point End Pass type
(mag) Time Alt. Az. Time Alt. Az. Time Alt. Az.
23 Oct -2.3 20:01:23 10° NW 20:03:47 44° NW 20:03:47 44° NW visible
24 Oct -2.9 19:12:17 10° NW 19:15:31 46° NNE 19:16:55 27° E visible
24 Oct 0.2 20:49:34 10° W 20:49:48 11° W 20:49:48 11° W visible
25 Oct -1.9 19:59:52 10° WNW 20:02:54 33° SW 20:03:04 33° SW visible
26 Oct -2.9 19:10:25 10° WNW 19:13:43 63° SW 19:16:29 14° SE visible
27 Oct -0.2 19:59:20 10° WSW 20:00:41 12° SW 20:02:01 10° SSW visible
28 Oct -0.7 19:08:53 10° W 19:11:30 22° SW 19:14:07 10° S visible
